PROFILE

 METAR AND TAF INFORMATION
ADDS - METARS form results

(0057 UTC 17 November 2019)
http://aviationweather.gov/metar/data/
 
ENAT 170050Z AUTO 14010KT 9999 NCD M08/M12 Q1023 RMK WIND 700FT 15019KT

 AIRPORT MAP

 RUNWAY INFORMATION
Runway 11 Runway length 7165 ft Runway width 131 ft
Runway elevation 8 ft Runway displaced threshold 674 ft Runway heading 121
Runway 29 Runway length 7165 ft Runway width 131 ft
Runway elevation 7 ft Runway displaced threshold 418 ft Runway heading 301

 AIRPORT FREQUENCIES
Type ATIS Name ATIS Frequency 118.175 MHZ
Type TWR Name TWR Frequency 118.1 MHZ

 AIRPORT NEAR NAVIGATION AIDS
Type NDB Name Alta Frequency 358 KHZ
Type VOR-DME Name Alta Frequency 117400 KHZ